Weather observations for the past three days for
Watsonville, Watsonville Municipal Airport
Metric (Imperial)
Date Time (pdt) Wind (kph) Vis. (km) Weather Sky Cond. Temperature (ºC) Relative Humidity Wind Chill (°C) Heat Index (°C) Pressure Precipitation (cm)
Air Dwpt 6 hour altimeter (cm) sea level (mb) 1 hr 3 hr 6 hr
Max. Min.
08 09:53 Vrbl 6 16.09 Overcast BKN009 OVC013 13.9 10.6 81% 76.48 1019.5
08 08:53 Calm 16.09 Overcast OVC007 12.2 10.6 90% 76.48 1019.7
08 07:53 Calm 9.66 Fog/Mist OVC005 11.7 10.6 93% 76.48 1019.6
08 06:53 NE 6 6.44 Fog/Mist OVC005 11.7 10.6 93% 76.43 1019.0
08 05:53 Calm 11.27 Overcast OVC005 11.7 10.6 93% 76.43 1018.9
08 04:53 N 6 8.05 Fog/Mist OVC004 11.7 10.6 12.2 11.1 93% 76.4 1018.6
08 03:53 NW 6 11.27 Overcast OVC006 11.7 10.6 93% 76.4 1018.5
08 02:53 Calm 12.87 Overcast OVC003 11.7 10.6 93% 76.38 1018.3
08 01:53 Calm 16.09 Overcast OVC005 11.7 10.6 93% 76.4 1018.5
08 00:53 E 6 16.09 Overcast OVC006 12.2 10.6 90% 76.4 1018.6
07 23:53 Calm 16.09 Overcast OVC007 12.2 10 87% 76.38 1018.3
07 22:53 E 6 16.09 Mostly Cloudy BKN008 11.7 10 18.9 11.7 89% 76.38 1018.3
07 21:53 E 9 16.09 Mostly Cloudy BKN008 12.2 10 87% 76.38 1018.2
07 20:53 SE 11 16.09 Mostly Cloudy BKN008 12.2 10.6 90% 76.35 1017.8
07 19:53 SE 15 16.09 Fair CLR 12.8 10.6 87% 76.3 1017.3
07 18:53 SE 19 16.09 Fair CLR 15 11.1 78% 76.3 1017.1
07 17:53 SE 15 16.09 Fair CLR 18.3 11.7 66% 76.28 1017.0
07 16:53 S 11 16.09 Fair CLR 18.9 11.7 21.1 17.8 63% 76.28 1016.9
07 15:53 S 13 16.09 Fair CLR 20.6 12.8 61% 76.3 1017.1
07 14:53 S 13 16.09 Fair CLR 20.6 12.8 61% 76.33 1017.5
07 13:53 SW 13 16.09 Fair CLR 20.6 12.8 61% 76.35 1017.8
07 12:53 SW 13 16.09 Fair CLR 19.4 12.8 66% 76.38 1018.1
07 11:53 W 11 16.09 Fair CLR 19.4 13.3 68% 76.4 1018.5
07 10:53 Calm 16.09 Fair CLR 18.3 12.2 18.3 12.2 68% 76.43 1018.9
07 09:53 Calm 16.09 Mostly Cloudy BKN008 15 11.7 81% 76.45 1019.1
07 08:53 Calm 16.09 Overcast OVC004 12.8 11.7 93% 76.45 1019.4
07 07:53 Calm 8.05 Fog/Mist OVC003 12.2 11.1 93% 76.45 1019.4
07 06:53 Calm 11.27 Overcast OVC003 12.2 11.1 93% 76.45 1019.2
07 05:53 NE 7 12.87 Overcast OVC004 12.8 11.7 93% 76.43 1018.8
07 04:53 Calm 11.27 Overcast OVC004 12.8 11.7 13.3 12.2 93% 76.43 1018.8
Date Time (pdt) Wind (kph) Vis. (km) Weather Sky Cond. Air Dwpt Max. Min. Relative Humidity Wind Chill (°C) Heat Index (°C) altimeter (cm) sea level (mb) 1 hr 3 hr 6 hr
6 hour
Temperature (ºC) Pressure Precipitation (cm)